Regional Weather Roundup
Issued by NWS

Home | Current Version | Previous Version | Graphics & Text | Print | Product List | Glossary On
Versions: 1 2 3 4 5 6 7 8 9 10 11 12 13 14 15 16 17 18 19 20 21 22 23 24 25 26 27 28 29 30 31 32 33 34 35 36 37 38 39 40 41 42 43 44 45 46 47 48 49 50
000
ASUS43 KBIS 012010
RWRND

NORTH DAKOTA REGIONAL WEATHER ROUNDUP
NATIONAL WEATHER SERVICE BISMARCK ND
300 PM CDT MON JUN 01 2015

NOTE: "FAIR" INDICATES FEW OR NO CLOUDS BELOW 12,000 FEET WITH NO
SIGNIFICANT WEATHER AND/OR OBSTRUCTIONS TO VISIBILITY.


NDZ001>003-009>011-017-012100-
NORTHWEST NORTH DAKOTA

CITY           SKY/WX    TMP DP  RH WIND       PRES   REMARKS
WILLISTON      SUNNY     88  52  29 S12G18    29.77F
MINOT          SUNNY     80  54  40 SE16G25   29.81F
MINOT AFB      SUNNY     83  57  41 S18G26    29.80F
$$

NDZ018>021-031>035-040>046-012100-
SOUTHWEST NORTH DAKOTA

CITY           SKY/WX    TMP DP  RH WIND       PRES   REMARKS
BISMARCK       MOSUNNY   79  58  48 S17       29.88F
DICKINSON      MOSUNNY   83  59  44 S15G25    29.83F
GARRISON         N/A     80  55  42 S17       29.84F
HETTINGER ARPT MOSUNNY   81  60  48 S16       29.88F
$$

NDZ004>008-012>016-024-026-027-054-012100-
NORTHEAST NORTH DAKOTA

CITY           SKY/WX    TMP DP  RH WIND       PRES   REMARKS
GRAND FORKS    PTSUNNY   70  43  37 S25G36    30.00F
GRND FRKS AFB  PTSUNNY   70  47  44 S21G33    29.98F
DEVILS LAKE    SUNNY     73  52  46 S21G28    29.92F
$$

NDZ022-023-025-028>030-036>039-047>053-012100-
SOUTHEAST NORTH DAKOTA

CITY           SKY/WX    TMP DP  RH WIND       PRES   REMARKS
FARGO          CLOUDY    68  46  45 S20G35    30.03F
JAMESTOWN      PTSUNNY   76  55  48 S24G32    29.94F
$$




USA.gov is the U.S. government's official web portal to all federal, state and local government web resources and services.